Regional Weather Roundup
Issued by NWS

Home | Current Version | Previous Version | Graphics & Text | Print | Product List | Glossary On
Versions: 1 2 3 4 5 6 7 8 9 10 11 12 13 14 15 16 17 18 19 20 21 22 23 24 25 26 27 28 29 30 31 32 33 34 35 36 37 38 39 40 41 42 43 44 45 46 47 48 49 50
000
ASUS43 KOAX 311310
RWRNE

WEATHER ROUNDUP FOR NEBRASKA
NATIONAL WEATHER SERVICE OMAHA NE
800 AM CDT THU JUL 31 2014

NOTES: SATELLITE DATA IS BEING USED TO AUGMENT CLOUD COVER ABOVE
       12000 FEET.
       "FAIR" INDICATES FEW OR NO CLOUDS BELOW 12,000 FEET WITH NO
       SIGNIFICANT WEATHER AND/OR OBSTRUCTIONS TO VISIBILITY.

  * THESE STATIONS DO NOT REPORT WEATHER SUCH AS RAIN...SNOW OR FOG.

NEZ001>004-019>022-054>056-311400-
NEBRASKA PANHANDLE

CITY           SKY/WX    TMP DP  RH WIND       PRES   REMARKS
SCOTTSBLUFF    SUNNY     58  56  93 NW3       30.22R
ALLIANCE       SUNNY     55  52  89 W6        30.20S
CHADRON        SUNNY     54  49  83 CALM      30.19S
KIMBALL        SUNNY     56  55  97 SW7       30.25S
SIDNEY         MOSUNNY   59  56  89 W5        30.24S
$$

NEZ057>060-069>072-079>082-311400-
SOUTHWEST NEBRASKA

CITY           SKY/WX    TMP DP  RH WIND       PRES   REMARKS
NORTH PLATTE   PTSUNNY   59  57  93 W3        30.15S
IMPERIAL       SUNNY     61  57  87 W6        30.20R
LEXINGTON      MOSUNNY   62  59  90 CALM      30.13F
MCCOOK         MOSUNNY   61  59  93 W8        30.17S
OGALLALA       SUNNY     56  55  97 W3        30.18S
$$

NEZ005>010-023>029-035>040-094-311400-
NORTH CENTRAL NEBRASKA

CITY           SKY/WX    TMP DP  RH WIND       PRES   REMARKS
VALENTINE      SUNNY     60  52  74 NW8       30.10S
AINSWORTH      SUNNY     61  52  71 W6        30.09S
BROKEN BOW     SUNNY     62  58  86 CALM      30.10F
O`NEILL        PTSUNNY   64  59  85 SW5       30.08R
ORD            SUNNY     62  56  80 S5        30.08S
THEDFORD       SUNNY     63  58  84 W9        30.13S
$$

NEZ041-046>049-061>064-073>077-083>087-311400-
SOUTH CENTRAL NEBRASKA

CITY           SKY/WX    TMP DP  RH WIND       PRES   REMARKS
GRAND ISLAND   MOSUNNY   67  55  65 S7        30.12S
AURORA         MOSUNNY   64  59  85 CALM      30.12S
HASTINGS       PTSUNNY   65  52  62 SW6       30.12F
HEBRON         PTSUNNY   58  53  81 CALM      30.13S
HOLDREGE       PTSUNNY   64  58  79 CALM      30.13S
KEARNEY *      MOSUNNY   63  54  72 S10       30.12F
YORK           MOSUNNY   61  57  88 S5        30.13S
$$

NEZ011>018-030>034-042>045-311400-
NORTHEAST NEBRASKA

CITY           SKY/WX    TMP DP  RH WIND       PRES   REMARKS
NORFOLK        MOSUNNY   60  56  86 E3        30.09S
ALBION         MOSUNNY   64  55  73 S3        30.10S
BLAIR          SUNNY     61  56  83 CALM      30.11R
COLUMBUS *     MOSUNNY   63  54  72 S5        30.11S
FREMONT        SUNNY     64  60  88 CALM      30.11S
TEKAMAH        SUNNY     59  56  89 S3        30.10S
WAYNE          CLOUDY    59  57  92 CALM      30.10S
$$

NEZ050>053-065>068-078-088>093-311400-
SOUTHEAST NEBRASKA

CITY           SKY/WX    TMP DP  RH WIND       PRES   REMARKS
LINCOLN        SUNNY     61  55  81 CALM      30.13R
OMAHA EPPLEY   SUNNY     63  57  81 SE8       30.11S
BEATRICE       MOSUNNY   59  55  89 CALM      30.13R
FALLS CITY     SUNNY     60  56  86 CALM      30.11S FOG
NEBRASKA CITY  SUNNY     63  56  77 CALM      30.12S
PLATTSMOUTH    SUNNY     64  56  77 CALM      30.12R
$$

NEZ044-045-051>053-067-311400-
OMAHA AREA

CITY           SKY/WX    TMP DP  RH WIND       PRES   REMARKS
OMAHA EPPLEY   SUNNY     63  57  81 SE8       30.11S
BLAIR          SUNNY     61  56  83 CALM      30.11R
FREMONT        SUNNY     64  60  88 CALM      30.11S
MILLARD        SUNNY     62  57  83 CALM      30.11R
OFFUTT AFB     SUNNY     60  60 100 CALM      30.11R
PLATTSMOUTH    SUNNY     64  56  77 CALM      30.12R
WAHOO          FAIR      61  56  84 CALM      30.11S
$$


USA.gov is the U.S. government's official web portal to all federal, state and local government web resources and services.